Starlink 11226

operational
NORAD ID: 60907 Int'l Des: 2024-154 Owner: SPXS Country: US Constellation: starlink
LEOCIRCULAR

关于 Starlink 11226

正在加载描述...

实时位置

正在加载3D地球...

即将过境

高度历史

Altitude vs Time

uPlot chart will show altitude changes over time

两行轨道根数

1 60907U 24154E 26035.14816543 -.00000581 00000-0 64325-7 0 9998
2 60907 53.1602 296.8050 0001221 82.6784 277.4372 15.69708556 83243
Epoch: Feb 4, 2026 • Age: 17 hours

当前状态

高度 376.9 km
速度 7.68 km/s
星下点 -48.12°S, 161.09°E
发射日期 Aug 31, 2024
运行时间 1.4 years
类型 internet

技术详情

分类 Payload
质量 960.00 kg
干质量 910.00 kg
总质量 960.00 kg
长度 0.30 m
直径 4.10 m
跨度 29.00 m
形状 Box + pan
制造商 SPXS
平台类型 Starlink V2MD
阶段状态 In Orbit
所有者/国家 SPXS/US

大型星座

Loading constellations...